Weather in Druskininkai

Lithuania     54˚00′53″N   23˚58′41″E
temp.,
°C
wind,
m/s
gust,
m/s
humid.,
%
clouds,
%
prec.,
mm/h
press.,
hPa
HPBL,
m
2 december, wed
wed223:00−4˚se26890 0.0 1031205
02:00−5˚se25890 0.0 1031201
05:00−5˚se25900 0.0 1030187
08:00−5˚ese24910 0.0 1031156
11:00−3˚ese25810 0.0 1031299
14:00−2˚e25770 0.0 1028412
17:00−4˚e27932 0.0 1027276
20:00−4˚ese279528 0.0 1026291
3 december, thu
thu323:00−4˚se269571 0.1 1024297
02:00−4˚se379565 0.1 1023302
05:00−4˚sse379287 0.1 1022434
08:00−3˚sse488792 0.1 1020617
11:00−1˚sse51078100 0.0 1020751
14:00sse51076100 0.1 1018745
17:00−1˚se5138759 0.0 1017637
20:00+1˚sse6138279 0.0 1016777
4 december, fri
fri423:00+1˚se71583100 0.0 1015742
02:00+1˚sse61685100 0.0 1015689
05:00+2˚sse61586100 0.0 1013681
08:00+2˚se71487100 0.0 1013739
11:00+2˚se71488100 0.0 1013801
14:00+3˚se71485100 0.0 1013770
17:00+3˚se71587100 0.0 1013765
20:00+4˚se71686100 0.0 1013780
5 december, sat
sat523:00+5˚sse7188872 0.0 1013749
02:00+6˚se7158884 0.0 1014871
05:00+6˚se71588100 0.0 1015780
08:00+6˚se61487100 0.0 1016787
11:00+6˚se61485100 0.0 1017875
14:00+7˚se61383100 0.0 1017906
17:00+6˚se61483100 0.0 1017854
20:00+6˚se61482100 0.0 1019865
6 december, sun
sun623:00+6˚se61482100 0.0 1019802
02:00+6˚se61481100 0.0 1020833
05:00+5˚se6138099 0.0 1020823
08:00+4˚se6137999 0.0 1020772
11:00+3˚se71377100 0.0 1021854
14:00+3˚se71377100 0.0 1021903
17:00+1˚se61377100 0.0 1021814
20:00se7157596 0.0 1021764